FW0743 Weather Reports


time (UTC)temp
C
wind
direction
speed
KPH
gust
KPH
rain 1hr
cm
rain 24hr
cm
rain mn
cm
humidity
%
barometer
mb
20260504050010 6 186 0.0 3.2 0.00 0.23 0.00 96 1009.3
20260504044515 6 64 1.6 3.2 0.00 0.23 0.00 96 1009.5
20260504043018 6 65 0.0 1.6 0.00 0.23 0.00 95 1009.7
20260504041522 6 65 0.0 8.0 0.00 0.23 0.00 95 1009.7
20260504040028 6 178 3.2 4.8 0.00 0.23 0.00 95 1009.8
20260504034508 6 178 0.0 4.8 0.00 0.23 0.23 95 1009.9
20260504033016 6 178 1.6 4.8 0.03 0.23 0.23 95 1009.6
20260504031520 6 178 0.0 1.6 0.05 0.23 0.23 94 1009.8
20260504030024 6 178 0.0 1.6 0.08 0.23 0.23 94 1009.9
20260504024533 6 178 0.0 1.6 0.10 0.23 0.23 93 1010.0
20260504023012 6 178 0.0 6.4 0.10 0.20 0.20 92 1010.0
20260504021519 6 216 1.6 6.4 0.10 0.18 0.18 91 1011.0
20260504020021 6 308 0.0 3.2 0.13 0.15 0.15 89 1010.7
20260504014526 6 311 1.6 11.3 0.13 0.13 0.13 86 1011.0
20260504013010 7 304 1.6 12.9 0.10 0.10 0.10 84 1011.0
20260504011514 7 303 3.2 16.1 0.08 0.08 0.08 79 1010.7
20260504010003 7 288 3.2 9.7 0.03 0.03 0.03 75 1010.5
20260504004506 8 320 3.2 16.1 0.00 0.00 0.00 66 1010.3
20260504003004 9 242 6.4 24.1 0.00 0.00 0.00 62 1010.1
20260504001510 8 237 6.4 14.5 0.00 0.00 0.00 61 1010.0
20260504000015 8 199 0.0 4.8 0.00 0.00 0.00 68 1009.7
20260503234504 8 199 0.0 0.0 0.00 0.00 0.00 65 1009.7
20260503233006 8 199 0.0 6.4 0.00 0.00 0.00 61 1009.7
20260503231509 8 291 6.4 38.6 0.00 0.00 0.00 60 1010.3
20260503230013 10 268 4.8 35.4 0.00 0.00 0.00 51 1010.5
20260503224527 10 299 12.9 33.8 0.00 0.00 0.00 49 1010.2
20260503223004 10 311 3.2 16.1 0.00 0.00 0.00 49 1010.0
20260503221508 10 330 6.4 14.5 0.00 0.00 0.00 48 1010.0
20260503220018 10 241 3.2 14.5 0.00 0.00 0.00 48 1009.9
20260503214515 10 298 3.2 16.1 0.00 0.00 0.00 48 1009.9
20260503213023 10 284 6.4 19.3 0.00 0.00 0.00 47 1009.9
20260503211504 10 290 8.0 22.5 0.00 0.00 0.00 46 1009.9
20260503210007 11 23 4.8 19.3 0.00 0.00 0.00 46 1010.0
20260503204514 10 305 14.5 25.7 0.00 0.00 0.00 44 1010.1
20260503203024 11 315 12.9 27.4 0.00 0.00 0.00 41 1010.4
20260503201523 10 339 8.0 22.5 0.00 0.00 0.00 42 1010.5
20260503200009 10 344 16.1 25.7 0.00 0.00 0.00 40 1010.8
20260503194512 10 335 11.3 32.2 0.00 0.00 0.00 44 1010.9
20260503193016 10 310 9.7 27.4 0.00 0.00 0.00 43 1011.0
20260503191523 11 321 11.3 27.4 0.00 0.00 0.00 41 1010.9
20260503190026 11 297 11.3 35.4 0.00 0.00 0.00 37 1010.9
20260503184516 10 334 16.1 32.2 0.00 0.00 0.00 34 1011.0
20260503183014 10 319 14.5 24.1 0.00 0.00 0.00 34 1011.3
20260503181519 10 133 6.4 30.6 0.00 0.00 0.00 35 1011.4
20260503180024 10 5 14.5 29.0 0.00 0.00 0.00 39 1011.8
20260503174531 9 24 9.7 33.8 0.00 0.00 0.00 37 1011.9
20260503173010 9 277 14.5 25.7 0.00 0.00 0.00 35 1012.0
20260503171517 9 314 9.7 32.2 0.00 0.00 0.00 35 1012.1
20260503081516 1 285 0.0 0.0 0.00 0.00 0.00 85 1013.7
20260503071514 1 285 0.0 0.0 0.00 0.03 0.00 82 1013.5
20260503054526 2 290 0.0 3.2 0.00 0.03 0.00 78 1013.6